| time (UTC) | temp C | wind direction | speed KPH | gust KPH | rain 1hr cm | rain 24hr cm | rain mn cm | humidity % | barometer mb |
| 20260503225746 | 26 | 221 | 4.8 | 16.1 | 0.00 | 0.03 | 0.03 | 32 | 1014.0 |
| 20260503224803 | 27 | 80 | 4.8 | 16.1 | 0.00 | 0.03 | 0.03 | 34 | 1014.2 |
| 20260503223800 | 27 | 136 | 4.8 | 14.5 | 0.00 | 0.03 | 0.03 | 30 | 1014.1 |
| 20260503222741 | 27 | 254 | 4.8 | 14.5 | 0.00 | 0.03 | 0.03 | 30 | 1014.2 |
| 20260503221740 | 27 | 242 | 4.8 | 19.3 | 0.00 | 0.03 | 0.03 | 29 | 1014.3 |
| 20260503220754 | 27 | 228 | 6.4 | 24.1 | 0.00 | 0.03 | 0.03 | 31 | 1014.5 |
| 20260503215717 | 27 | 262 | 4.8 | 24.1 | 0.00 | 0.03 | 0.03 | 29 | 1014.6 |
| 20260503214648 | 27 | 213 | 3.2 | 16.1 | 0.00 | 0.03 | 0.03 | 30 | 1014.7 |
| 20260503213617 | 27 | 217 | 6.4 | 19.3 | 0.00 | 0.03 | 0.03 | 29 | 1014.8 |
| 20260503212542 | 27 | 260 | 6.4 | 19.3 | 0.00 | 0.03 | 0.03 | 32 | 1015.0 |
| 20260503211605 | 27 | 111 | 4.8 | 12.9 | 0.00 | 0.03 | 0.03 | 30 | 1015.2 |
| 20260503210622 | 27 | 250 | 4.8 | 12.9 | 0.00 | 0.03 | 0.03 | 31 | 1015.4 |
| 20260503205625 | 27 | 234 | 4.8 | 19.3 | 0.00 | 0.03 | 0.03 | 30 | 1015.6 |
| 20260503204557 | 27 | 184 | 4.8 | 19.3 | 0.00 | 0.03 | 0.03 | 33 | 1015.8 |
| 20260503202433 | 27 | 205 | 4.8 | 12.9 | 0.00 | 0.03 | 0.03 | 35 | 1016.2 |
| 20260503200327 | 27 | 109 | 6.4 | 16.1 | 0.00 | 0.03 | 0.03 | 36 | 1016.6 |
| 20260503195253 | 26 | 311 | 4.8 | 14.5 | 0.00 | 0.03 | 0.03 | 36 | 1016.7 |
| 20260503194258 | 27 | 281 | 4.8 | 12.9 | 0.00 | 0.03 | 0.03 | 33 | 1016.9 |
| 20260503192058 | 26 | 205 | 6.4 | 17.7 | 0.00 | 0.03 | 0.03 | 38 | 1017.4 |
| 20260503191112 | 26 | 232 | 6.4 | 24.1 | 0.00 | 0.03 | 0.03 | 33 | 1017.5 |
| 20260503190039 | 26 | 226 | 6.4 | 24.1 | 0.00 | 0.03 | 0.03 | 35 | 1017.6 |
| 20260503185045 | 26 | 155 | 4.8 | 16.1 | 0.00 | 0.03 | 0.03 | 38 | 1017.7 |
| 20260503184059 | 26 | 238 | 6.4 | 16.1 | 0.00 | 0.03 | 0.03 | 39 | 1017.9 |
| 20260503183059 | 26 | 298 | 4.8 | 14.5 | 0.00 | 0.03 | 0.03 | 38 | 1018.0 |
| 20260503175805 | 26 | 248 | 4.8 | 16.1 | 0.00 | 0.03 | 0.03 | 44 | 1018.7 |
| 20260503174749 | 26 | 238 | 4.8 | 19.3 | 0.00 | 0.03 | 0.03 | 40 | 1018.9 |
| 20260503173741 | 25 | 236 | 4.8 | 19.3 | 0.00 | 0.03 | 0.03 | 43 | 1019.0 |
| 20260503172752 | 25 | 226 | 8.0 | 16.1 | 0.00 | 0.03 | 0.03 | 42 | 1019.1 |
| 20260503170629 | 25 | 215 | 6.4 | 16.1 | 0.00 | 0.03 | 0.03 | 45 | 1019.4 |
| 20260503150457 | 21 | 253 | 4.8 | 16.1 | 0.00 | 0.03 | 0.03 | 55 | 1020.0 |
| 20260503140309 | 18 | 234 | 1.6 | 11.3 | 0.00 | 0.03 | 0.03 | 66 | 1020.0 |
| 20260503131111 | 12 | 0 | 0.0 | 0.0 | 0.00 | 0.03 | 0.03 | 88 | 1019.8 |
| 20260503110808 | 10 | 213 | 0.0 | 0.0 | 0.00 | 0.00 | 0.00 | 87 | 1018.9 |
| 20260503081557 | 11 | 213 | 0.0 | 0.0 | 0.00 | 0.00 | 0.00 | 85 | 1018.6 |
| 20260503080526 | 11 | 213 | 0.0 | 0.0 | 0.00 | 0.00 | 0.00 | 85 | 1018.7 |
| 20260503071303 | 12 | 213 | 0.0 | 0.0 | 0.00 | 0.00 | 0.00 | 84 | 1018.9 |
| 20260503070245 | 12 | 213 | 0.0 | 0.0 | 0.00 | 0.00 | 0.00 | 85 | 1019.0 |
| 20260503055043 | 12 | 213 | 0.0 | 0.0 | 0.00 | 0.00 | 0.00 | 83 | 1018.7 |
| 20260503054013 | 12 | 213 | 0.0 | 0.0 | 0.00 | 0.00 | 0.00 | 83 | 1018.7 |
| 20260503053035 | 12 | 213 | 0.0 | 0.0 | 0.00 | 0.00 | 0.00 | 82 | 1018.6 |
| 20260503050948 | 12 | 213 | 0.0 | 0.0 | 0.00 | 0.00 | 0.00 | 82 | 1018.5 |
| 20260503044814 | 13 | 213 | 0.0 | 0.0 | 0.00 | 0.00 | 0.00 | 81 | 1018.5 |
| 20260503043800 | 13 | 213 | 0.0 | 0.0 | 0.00 | 0.00 | 0.00 | 81 | 1018.5 |
| 20260503042821 | 13 | 213 | 0.0 | 0.0 | 0.00 | 0.00 | 0.00 | 81 | 1018.5 |
| 20260503041747 | 13 | 213 | 0.0 | 0.0 | 0.00 | 0.00 | 0.00 | 81 | 1018.5 |
| 20260503035643 | 13 | 213 | 0.0 | 0.0 | 0.00 | 0.00 | 0.00 | 79 | 1018.5 |
| 20260503034641 | 14 | 213 | 0.0 | 0.0 | 0.00 | 0.00 | 0.00 | 79 | 1018.5 |
| 20260503032539 | 14 | 213 | 0.0 | 0.0 | 0.00 | 0.00 | 0.00 | 77 | 1018.4 |
| 20260503031513 | 15 | 213 | 0.0 | 0.0 | 0.00 | 0.00 | 0.00 | 77 | 1018.3 |
| 20260503025255 | 15 | 213 | 0.0 | 0.0 | 0.00 | 0.00 | 0.00 | 74 | 1018.1 |
| 20260503024224 | 15 | 213 | 0.0 | 0.0 | 0.00 | 0.00 | 0.00 | 73 | 1018.0 |
| 20260503022127 | 16 | 213 | 0.0 | 0.0 | 0.00 | 0.00 | 0.00 | 70 | 1017.9 |
| 20260503021121 | 17 | 213 | 0.0 | 0.0 | 0.00 | 0.00 | 0.00 | 69 | 1017.8 |
| 20260503020121 | 17 | 213 | 0.0 | 0.0 | 0.00 | 0.00 | 0.00 | 66 | 1017.7 |
| 20260503015143 | 18 | 213 | 0.0 | 0.0 | 0.00 | 0.00 | 0.00 | 65 | 1017.7 |
| 20260503014146 | 19 | 213 | 0.0 | 0.0 | 0.00 | 0.00 | 0.00 | 62 | 1017.7 |
| 20260503013111 | 20 | 213 | 0.0 | 0.0 | 0.00 | 0.00 | 0.00 | 59 | 1017.6 |
| 20260503012131 | 21 | 213 | 0.0 | 0.0 | 0.00 | 0.00 | 0.00 | 58 | 1017.5 |
| 20260503011149 | 21 | 213 | 0.0 | 0.0 | 0.00 | 0.00 | 0.00 | 53 | 1017.5 |
| 20260503010157 | 22 | 213 | 0.0 | 0.0 | 0.00 | 0.00 | 0.00 | 54 | 1017.4 |
| 20260503005200 | 23 | 213 | 0.0 | 0.0 | 0.00 | 0.00 | 0.00 | 50 | 1017.4 |
| 20260503004203 | 23 | 213 | 0.0 | 0.0 | 0.00 | 0.00 | 0.00 | 45 | 1017.3 |
| 20260503003143 | 23 | 213 | 0.0 | 3.2 | 0.00 | 0.00 | 0.00 | 42 | 1017.3 |
| 20260503002200 | 24 | 213 | 0.0 | 3.2 | 0.00 | 0.00 | 0.00 | 42 | 1017.3 |
| 20260503001202 | 24 | 213 | 0.0 | 0.0 | 0.00 | 0.00 | 0.00 | 42 | 1017.2 |
| 20260503000203 | 24 | 213 | 0.0 | 4.8 | 0.00 | 0.00 | 0.00 | 40 | 1017.3 |
| 20260502235223 | 24 | 238 | 0.0 | 3.2 | 0.00 | 0.00 | 0.00 | 42 | 1017.4 |
| 20260502234147 | 24 | 237 | 1.6 | 6.4 | 0.00 | 0.00 | 0.00 | 37 | 1017.4 |
| 20260502233200 | 24 | 237 | 1.6 | 11.3 | 0.00 | 0.00 | 0.00 | 40 | 1017.4 |
| 20260502231017 | 25 | 293 | 3.2 | 11.3 | 0.00 | 0.00 | 0.00 | 39 | 1017.6 |